Temp
-14 -14 -14 -15 -15 -15 -15 -15 -15 -15 -15 -15 -15 -15 -15 -15 -15 -15 -15 -15 -15 -15 -15 -15 -15 -15 -16 -16 -16 -16 -16 -15 -15 -15 -14 -14 -14 -14 -13 -13 -13 -13 -13 -10 -9 -9 -10 -12 -12 -10 -11 -10 -9 -7
-14 -14 -14 -15 -15 -15 -15 -15 -15 -15 -15 -15 -15 -15 -15 -15 -15 -15 -15 -15 -15 -15 -15 -15 -15 -15 -15 -16 -16 -16 -16 -16 -16 -15 -15 -15 -14 -14 -14 -14 -14 -14 -15 -15 -15 -16 -16 -15 -15 -14 -12 -11 -9 -9
-14 -15 -15 -15 -15 -15 -15 -15 -15 -15 -15 -15 -15 -15 -16 -16 -15 -15 -15 -15 -16 -15 -15 -15 -16 -16 -16 -16 -16 -16 -16 -16 -16 -16 -16 -15 -15 -15 -14 -15 -15 -15 -16 -16 -16 -16 -16 -16 -15 -14 -14 -12 -10 -9
-14 -15 -15 -15 -15 -15 -15 -15 -15 -15 -15 -16 -16 -16 -16 -16 -16 -16 -16 -16 -16 -16 -16 -17 -16 -16 -16 -17 -17 -16 -16 -16 -16 -16 -16 -16 -16 -15 -15 -16 -17 -17 -17 -17 -17 -16 -16 -17 -15 -14 -14 -13 -12 -11
-15 -15 -15 -15 -15 -15 -15 -15 -15 -15 -16 -16 -16 -16 -16 -16 -16 -16 -16 -16 -16 -16 -16 -17 -17 -17 -17 -17 -17 -17 -16 -16 -16 -16 -16 -16 -16 -16 -16 -17 -18 -18 -19 -19 -19 -18 -18 -17 -17 -16 -15 -15 -13 -12
-15 -15 -15 -15 -15 -15 -15 -15 -15 -15 -16 -16 -16 -16 -16 -16 -16 -16 -16 -16 -17 -17 -17 -17 -17 -17 -17 -17 -17 -17 -16 -16 -16 -16 -16 -16 -16 -17 -18 -19 -20 -20 -20 -20 -19 -19 -19 -18 -18 -17 -16 -16 -15 -14
-15 -15 -15 -15 -15 -15 -15 -15 -16 -16 -16 -16 -16 -17 -16 -16 -17 -17 -17 -17 -17 -17 -17 -17 -17 -17 -17 -17 -17 -17 -17 -17 -16 -17 -17 -17 -18 -18 -18 -20 -20 -20 -20 -20 -19 -19 -19 -18 -17 -17 -17 -17 -16 -16
-15 -15 -15 -15 -15 -15 -15 -16 -16 -16 -16 -16 -17 -17 -17 -17 -17 -17 -17 -17 -17 -17 -17 -18 -17 -18 -18 -18 -17 -17 -17 -17 -17 -17 -18 -19 -19 -19 -21 -21 -21 -20 -20 -20 -19 -19 -19 -18 -18 -18 -17 -17 -17 -16
-15 -15 -15 -15 -15 -15 -15 -16 -16 -16 -16 -17 -17 -17 -17 -17 -17 -17 -17 -17 -17 -18 -18 -18 -18 -19 -18 -18 -18 -18 -18 -18 -18 -19 -19 -20 -21 -21 -22 -21 -20 -20 -19 -19 -19 -19 -19 -19 -18 -18 -17 -17 -17 -17
-15 -15 -15 -15 -15 -15 -15 -16 -16 -16 -16 -17 -17 -17 -17 -17 -17 -17 -17 -18 -18 -18 -18 -18 -18 -19 -18 -18 -18 -18 -18 -19 -20 -20 -20 -21 -23 -22 -22 -21 -21 -20 -20 -20 -19 -19 -19 -19 -18 -18 -17 -17 -17 -17
-15 -15 -15 -15 -15 -15 -15 -16 -16 -16 -17 -17 -17 -17 -17 -17 -17 -18 -18 -18 -18 -18 -18 -18 -19 -18 -18 -18 -18 -18 -18 -19 -20 -20 -21 -22 -23 -22 -21 -21 -21 -20 -20 -20 -20 -19 -19 -19 -18 -18 -18 -18 -17 -17
-15 -15 -15 -15 -15 -15 -15 -16 -16 -16 -17 -17 -17 -17 -17 -17 -18 -18 -18 -18 -19 -19 -19 -19 -18 -18 -19 -18 -19 -19 -19 -19 -20 -20 -21 -23 -22 -22 -21 -21 -21 -20 -20 -20 -20 -20 -19 -19 -19 -18 -18 -18 -18 -17
-14 -15 -15 -15 -15 -15 -15 -16 -16 -16 -16 -16 -17 -17 -17 -18 -18 -18 -19 -19 -19 -19 -19 -19 -19 -19 -19 -19 -19 -19 -19 -20 -21 -21 -23 -22 -22 -22 -21 -21 -21 -20 -20 -20 -20 -20 -20 -20 -19 -19 -19 -18 -18 -18
-14 -14 -14 -15 -15 -15 -15 -15 -16 -16 -16 -17 -17 -17 -18 -18 -19 -19 -19 -19 -19 -19 -19 -19 -19 -19 -20 -20 -19 -20 -20 -20 -21 -23 -24 -22 -22 -21 -21 -21 -21 -20 -20 -20 -20 -20 -20 -19 -19 -19 -19 -18 -18 -18
-13 -14 -14 -14 -15 -15 -15 -15 -16 -16 -16 -17 -17 -18 -19 -19 -19 -19 -19 -19 -19 -19 -19 -20 -20 -20 -20 -20 -20 -20 -21 -22 -23 -24 -23 -22 -22 -21 -21 -21 -21 -21 -21 -21 -21 -20 -20 -20 -20 -19 -19 -19 -19 -18
-12 -13 -14 -14 -15 -15 -15 -15 -16 -16 -17 -17 -18 -18 -19 -19 -19 -19 -19 -19 -19 -20 -20 -20 -20 -20 -20 -20 -21 -21 -22 -24 -24 -22 -22 -22 -22 -21 -21 -21 -21 -21 -21 -21 -21 -21 -21 -21 -21 -20 -20 -20 -19 -19
-12 -13 -13 -14 -14 -15 -15 -16 -16 -16 -17 -17 -18 -18 -19 -19 -19 -19 -19 -19 -19 -20 -20 -20 -20 -20 -21 -21 -21 -22 -22 -22 -22 -22 -22 -22 -22 -22 -22 -21 -21 -21 -21 -21 -21 -21 -21 -21 -21 -21 -21 -20 -20 -20
-12 -13 -13 -14 -14 -15 -15 -16 -16 -16 -17 -17 -18 -18 -19 -19 -19 -20 -20 -19 -19 -20 -20 -20 -20 -21 -21 -22 -23 -23 -23 -22 -22 -22 -22 -22 -22 -22 -22 -22 -22 -22 -22 -22 -21 -22 -21 -21 -21 -21 -21 -21 -21 -20
-13 -13 -14 -14 -15 -15 -16 -16 -16 -17 -17 -18 -18 -19 -19 -19 -19 -19 -20 -20 -20 -20 -20 -21 -21 -22 -22 -23 -23 -23 -23 -23 -22 -22 -22 -22 -22 -22 -22 -22 -22 -22 -22 -22 -22 -22 -22 -22 -21 -21 -21 -21 -21 -21
-13 -13 -14 -14 -15 -16 -16 -17 -17 -17 -18 -18 -19 -19 -20 -20 -20 -20 -20 -20 -20 -20 -21 -22 -23 -23 -23 -23 -23 -23 -22 -22 -22 -22 -22 -22 -22 -22 -22 -22 -22 -22 -22 -22 -22 -22 -21 -21 -21 -21 -21 -21 -21 -21
-13 -14 -14 -15 -15 -16 -17 -17 -17 -18 -18 -19 -19 -20 -20 -20 -21 -21 -21 -21 -21 -21 -23 -23 -23 -23 -23 -23 -23 -23 -23 -22 -22 -22 -22 -22 -22 -22 -22 -22 -22 -22 -22 -22 -22 -22 -22 -22 -22 -21 -21 -21 -21 -21
-13 -14 -14 -15 -16 -17 -17 -18 -18 -19 -19 -20 -20 -20 -20 -21 -21 -22 -22 -22 -22 -23 -23 -23 -23 -23 -23 -23 -23 -23 -23 -23 -23 -23 -23 -22 -22 -22 -22 -22 -22 -22 -22 -22 -22 -22 -22 -22 -22 -22 -22 -22 -22 -21
-14 -15 -16 -16 -17 -17 -18 -19 -19 -20 -20 -20 -21 -21 -21 -21 -22 -22 -23 -23 -24 -24 -24 -24 -24 -23 -23 -23 -23 -23 -23 -23 -23 -23 -23 -23 -23 -23 -23 -23 -23 -23 -23 -23 -23 -23 -23 -23 -23 -23 -22 -22 -22 -22
-15 -16 -17 -17 -18 -18 -19 -19 -20 -20 -21 -21 -21 -22 -22 -22 -23 -24 -24 -24 -24 -24 -24 -24 -24 -24 -24 -24 -23 -23 -24 -24 -24 -24 -24 -24 -24 -24 -23 -23 -23 -23 -23 -23 -23 -23 -24 -24 -24 -24 -23 -23 -23 -23
-16 -17 -18 -19 -19 -20 -20 -20 -21 -21 -21 -22 -22 -23 -23 -23 -24 -24 -24 -24 -24 -24 -24 -24 -24 -24 -24 -24 -24 -24 -24 -24 -24 -24 -24 -24 -24 -24 -24 -24 -24 -24 -24 -25 -25 -25 -25 -25 -25 -24 -24 -24 -24 -24
-18 -19 -20 -20 -20 -20 -21 -21 -21 -22 -22 -22 -23 -23 -23 -24 -24 -25 -25 -25 -24 -24 -24 -24 -25 -25 -25 -25 -24 -25 -25 -25 -25 -25 -25 -25 -25 -25 -25 -25 -25 -25 -25 -25 -25 -25 -25 -25 -25 -25 -25 -25 -24 -24
-20 -20 -21 -21 -21 -21 -22 -22 -22 -22 -22 -23 -23 -24 -24 -24 -25 -26 -25 -25 -24 -25 -25 -25 -25 -25 -25 -25 -25 -25 -25 -25 -25 -25 -25 -26 -26 -26 -26 -26 -26 -26 -26 -26 -26 -26 -26 -26 -26 -26 -25 -25 -25 -25
-21 -21 -21 -21 -21 -21 -22 -22 -22 -22 -23 -23 -23 -24 -24 -25 -26 -25 -25 -25 -25 -25 -25 -25 -25 -25 -25 -25 -25 -26 -26 -26 -26 -26 -26 -26 -26 -26 -26 -26 -26 -26 -26 -26 -26 -26 -26 -25 -25 -26 -26 -25 -25 -25
-21 -21 -21 -21 -21 -21 -22 -22 -22 -22 -23 -23 -23 -24 -25 -25 -25 -25 -25 -25 -26 -26 -26 -26 -26 -26 -26 -26 -26 -26 -26 -26 -26 -26 -26 -26 -26 -26 -26 -26 -26 -26 -26 -26 -26 -26 -26 -26 -26 -25 -25 -25 -25 -25
-20 -20 -21 -21 -21 -22 -22 -23 -23 -23 -23 -24 -24 -25 -25 -25 -26 -26 -26 -26 -26 -26 -26 -26 -26 -26 -26 -26 -26 -26 -26 -26 -26 -26 -26 -26 -26 -26 -26 -26 -26 -26 -26 -26 -26 -26 -26 -26 -26 -26 -26 -26 -25 -25
-20 -20 -21 -21 -22 -22 -23 -23 -23 -23 -24 -24 -25 -25 -25 -26 -26 -26 -26 -26 -26 -27 -27 -27 -26 -26 -26 -26 -26 -26 -26 -26 -26 -26 -26 -26 -26 -26 -26 -26 -26 -26 -26 -26 -26 -26 -26 -26 -26 -26 -26 -26 -25 -25
-20 -21 -21 -21 -22 -22 -23 -23 -24 -24 -24 -24 -25 -25 -25 -25 -26 -26 -26 -26 -26 -26 -26 -26 -26 -26 -26 -26 -26 -26 -25 -25 -25 -25 -26 -26 -25 -25 -25 -25 -26 -26 -26 -26 -26 -25 -25 -25 -25 -25 -26 -25 -25 -25
-21 -21 -21 -22 -22 -22 -23 -23 -24 -24 -24 -24 -24 -25 -25 -25 -25 -25 -26 -26 -26 -25 -25 -25 -25 -25 -25 -25 -25 -25 -25 -25 -25 -25 -25 -25 -25 -25 -25 -25 -25 -25 -25 -25 -25 -25 -25 -25 -25 -25 -25 -25 -25 -25
Height
3042 3038 3034 3030 3025 3021 3017 3012 3007 3003 2998 2994 2988 2984 2981 2979 2976 2973 2971 2970 2970 2969 2970 2969 2969 2968 2967 2966 2964 2963 2959 2956 2955 2954 2953 2951 2949 2947 2946 2945 2943 2944 2942 2941 2941 2937 2940 2938 2938 2943 2939 2939 2938 2938
3040 3036 3031 3027 3022 3018 3014 3009 3004 2999 2994 2990 2984 2979 2975 2973 2972 2970 2969 2967 2966 2966 2966 2967 2965 2964 2962 2960 2960 2958 2958 2956 2954 2953 2952 2950 2950 2948 2947 2945 2943 2944 2944 2942 2944 2940 2938 2936 2936 2935 2933 2932 2933 2933
3038 3034 3029 3025 3020 3016 3011 3005 3000 2995 2990 2986 2981 2976 2973 2970 2968 2966 2964 2963 2965 2965 2965 2963 2961 2960 2958 2957 2957 2956 2954 2953 2952 2952 2950 2950 2949 2948 2946 2943 2944 2944 2942 2941 2940 2939 2937 2934 2934 2932 2930 2928 2927 2927
3036 3031 3027 3023 3018 3013 3008 3002 2996 2990 2985 2981 2978 2974 2971 2968 2966 2965 2964 2963 2963 2962 2961 2960 2958 2956 2955 2954 2953 2952 2950 2949 2949 2949 2948 2948 2948 2945 2944 2944 2943 2943 2940 2939 2938 2936 2933 2933 2931 2928 2926 2924 2922 2920
3034 3029 3025 3021 3016 3011 3005 2999 2992 2987 2982 2977 2974 2971 2969 2966 2964 2962 2962 2961 2960 2962 2959 2957 2954 2954 2952 2951 2950 2948 2946 2945 2945 2945 2945 2945 2944 2944 2942 2942 2942 2941 2939 2939 2937 2936 2934 2933 2929 2926 2924 2920 2917 2914
3032 3028 3024 3019 3014 3009 3002 2996 2989 2983 2978 2973 2969 2967 2965 2963 2962 2961 2960 2959 2958 2957 2956 2955 2953 2951 2950 2949 2947 2945 2944 2942 2942 2941 2942 2941 2941 2942 2941 2940 2942 2941 2940 2938 2937 2935 2934 2932 2929 2925 2923 2919 2915 2911
3031 3026 3022 3018 3013 3007 3000 2993 2986 2980 2975 2970 2966 2964 2962 2961 2960 2960 2960 2958 2956 2955 2954 2953 2952 2950 2948 2947 2945 2943 2941 2940 2939 2938 2938 2939 2939 2939 2938 2939 2941 2940 2939 2938 2937 2935 2933 2932 2929 2927 2924 2920 2916 2913
3030 3025 3020 3016 3011 3004 2997 2991 2984 2978 2973 2969 2966 2963 2961 2960 2959 2958 2956 2955 2954 2954 2953 2953 2951 2949 2947 2945 2944 2942 2940 2939 2938 2937 2938 2937 2938 2937 2938 2939 2939 2938 2938 2937 2936 2934 2932 2930 2929 2927 2925 2923 2920 2917
3028 3023 3019 3014 3009 3003 2996 2989 2983 2977 2973 2970 2967 2965 2963 2961 2960 2958 2956 2954 2954 2956 2953 2952 2950 2949 2946 2944 2943 2942 2941 2939 2939 2938 2938 2939 2937 2938 2939 2938 2937 2937 2936 2935 2934 2932 2931 2930 2928 2926 2924 2922 2920 2918
3026 3021 3017 3013 3007 3001 2994 2987 2981 2976 2973 2970 2968 2966 2964 2962 2960 2959 2958 2957 2955 2955 2953 2952 2950 2948 2947 2944 2943 2943 2941 2940 2941 2941 2939 2938 2939 2940 2939 2938 2937 2936 2935 2934 2933 2931 2929 2928 2927 2925 2923 2922 2920 2918
3025 3020 3015 3011 3005 2999 2992 2986 2981 2976 2974 2971 2969 2967 2965 2963 2961 2959 2958 2957 2955 2954 2953 2952 2950 2947 2946 2945 2944 2943 2942 2941 2942 2943 2942 2941 2941 2940 2939 2938 2937 2935 2934 2932 2931 2930 2928 2927 2925 2924 2922 2921 2920 2918
3023 3018 3014 3009 3003 2997 2991 2986 2981 2977 2974 2972 2969 2967 2966 2964 2963 2962 2959 2958 2956 2954 2953 2951 2949 2947 2946 2944 2944 2943 2942 2942 2942 2942 2941 2941 2941 2940 2938 2937 2936 2935 2933 2932 2930 2929 2928 2926 2924 2923 2921 2920 2919 2918
3021 3016 3012 3007 3002 2996 2991 2986 2982 2978 2975 2973 2970 2968 2967 2967 2966 2963 2962 2959 2956 2954 2951 2949 2948 2947 2945 2945 2944 2943 2942 2942 2942 2941 2941 2941 2940 2939 2938 2936 2935 2933 2932 2931 2929 2927 2925 2924 2922 2921 2920 2919 2918 2916
3019 3015 3010 3005 3001 2996 2992 2987 2982 2978 2975 2974 2972 2971 2970 2969 2967 2964 2961 2958 2955 2951 2949 2947 2946 2946 2945 2944 2943 2942 2942 2942 2941 2942 2942 2940 2939 2938 2937 2935 2934 2932 2931 2929 2927 2926 2924 2922 2921 2920 2918 2917 2916 2915
3017 3013 3009 3004 3000 2995 2991 2986 2983 2979 2976 2974 2974 2973 2971 2970 2966 2963 2959 2956 2952 2949 2947 2946 2945 2945 2944 2943 2943 2943 2942 2941 2942 2942 2940 2940 2938 2937 2935 2934 2932 2931 2929 2927 2926 2924 2922 2921 2919 2918 2917 2915 2915 2913
3015 3011 3007 3002 2998 2994 2990 2986 2983 2979 2977 2975 2974 2973 2971 2968 2965 2962 2958 2955 2951 2948 2946 2946 2945 2944 2943 2943 2943 2941 2942 2942 2942 2940 2940 2938 2937 2936 2934 2933 2931 2930 2928 2926 2925 2923 2921 2920 2918 2917 2916 2915 2913 2913
3014 3009 3004 2999 2995 2991 2988 2985 2982 2979 2977 2975 2973 2971 2969 2967 2964 2961 2958 2954 2951 2949 2946 2945 2945 2944 2944 2942 2942 2942 2942 2942 2940 2939 2938 2937 2936 2935 2934 2932 2931 2929 2928 2926 2924 2923 2921 2919 2918 2916 2915 2913 2912 2911
3010 3006 3000 2996 2992 2988 2985 2982 2980 2978 2975 2974 2972 2970 2967 2965 2962 2959 2957 2953 2951 2949 2947 2946 2945 2944 2943 2943 2942 2942 2941 2940 2939 2938 2937 2936 2935 2934 2933 2932 2931 2929 2928 2926 2924 2922 2920 2919 2917 2915 2914 2912 2911 2910
3007 3002 2997 2992 2988 2985 2982 2980 2979 2976 2974 2972 2970 2968 2966 2963 2961 2958 2955 2952 2950 2948 2947 2946 2946 2945 2944 2944 2943 2941 2940 2939 2938 2937 2936 2935 2934 2933 2932 2931 2929 2928 2927 2926 2924 2922 2920 2918 2917 2915 2913 2912 2910 2909
3003 2998 2993 2989 2985 2981 2979 2978 2976 2973 2971 2970 2968 2966 2964 2962 2959 2957 2954 2952 2949 2948 2947 2947 2947 2947 2945 2944 2943 2941 2940 2938 2937 2935 2934 2933 2932 2931 2930 2928 2927 2926 2925 2924 2923 2922 2920 2918 2917 2915 2913 2911 2910 2908
2999 2994 2988 2985 2981 2979 2978 2976 2974 2972 2969 2967 2966 2964 2963 2960 2958 2956 2955 2952 2951 2949 2949 2950 2949 2947 2946 2944 2942 2940 2938 2937 2935 2933 2932 2930 2928 2927 2926 2925 2924 2923 2922 2921 2920 2919 2918 2917 2916 2915 2913 2911 2909 2908
2995 2990 2984 2980 2978 2977 2976 2975 2973 2971 2968 2966 2965 2963 2961 2959 2958 2957 2955 2955 2953 2953 2952 2951 2950 2948 2946 2944 2941 2939 2937 2935 2933 2931 2929 2927 2925 2924 2922 2920 2919 2918 2917 2917 2916 2915 2914 2913 2913 2912 2911 2910 2908 2907
2992 2986 2981 2979 2978 2977 2977 2973 2971 2968 2966 2965 2963 2962 2961 2960 2958 2957 2956 2956 2955 2955 2953 2952 2950 2947 2945 2942 2940 2938 2935 2933 2931 2928 2926 2924 2922 2920 2918 2917 2915 2913 2912 2911 2910 2910 2909 2908 2908 2907 2906 2906 2905 2904
2986 2983 2980 2979 2978 2976 2974 2972 2970 2968 2966 2965 2963 2962 2961 2960 2959 2958 2958 2958 2957 2955 2953 2951 2948 2946 2943 2940 2938 2935 2933 2930 2928 2926 2924 2922 2920 2918 2915 2913 2911 2909 2908 2906 2905 2903 2903 2902 2901 2901 2901 2900 2900 2900
2987 2984 2983 2980 2978 2976 2974 2972 2970 2968 2966 2965 2964 2963 2962 2961 2960 2961 2960 2959 2957 2954 2951 2949 2946 2943 2940 2937 2934 2932 2930 2928 2926 2924 2922 2920 2917 2915 2913 2911 2909 2907 2905 2903 2901 2899 2898 2897 2895 2895 2894 2894 2894 2894
2987 2985 2986 2982 2979 2976 2974 2972 2970 2968 2967 2965 2964 2963 2963 2963 2963 2963 2961 2959 2956 2953 2949 2946 2943 2941 2938 2934 2932 2930 2928 2926 2924 2922 2920 2918 2915 2913 2911 2909 2906 2904 2902 2900 2899 2897 2895 2893 2892 2890 2889 2888 2888 2888
2990 2989 2986 2983 2980 2978 2975 2973 2971 2969 2968 2966 2965 2964 2964 2964 2965 2965 2961 2958 2954 2950 2947 2943 2941 2938 2935 2933 2930 2928 2927 2925 2923 2921 2919 2916 2914 2911 2909 2907 2905 2903 2900 2898 2896 2894 2892 2890 2888 2887 2885 2884 2883 2883
2993 2989 2986 2984 2981 2979 2976 2974 2972 2970 2969 2968 2967 2966 2966 2967 2967 2964 2960 2956 2952 2948 2945 2942 2939 2936 2934 2932 2930 2928 2926 2924 2921 2919 2917 2915 2912 2910 2907 2905 2902 2900 2897 2895 2893 2891 2888 2886 2885 2883 2882 2880 2879 2878
2993 2990 2988 2985 2982 2979 2977 2976 2974 2973 2971 2970 2969 2968 2968 2968 2966 2963 2959 2955 2951 2947 2944 2941 2938 2936 2933 2931 2930 2927 2925 2923 2921 2918 2916 2913 2910 2908 2904 2902 2899 2896 2894 2891 2889 2886 2884 2882 2880 2878 2877 2876 2875 2874
2996 2992 2990 2986 2984 2981 2980 2978 2976 2975 2973 2972 2972 2971 2970 2968 2965 2962 2958 2954 2951 2947 2944 2941 2938 2936 2934 2931 2929 2927 2924 2922 2919 2917 2914 2911 2909 2906 2903 2900 2897 2894 2891 2888 2886 2883 2881 2878 2876 2874 2872 2871 2870 2869
2997 2994 2991 2988 2985 2983 2981 2980 2979 2977 2976 2975 2973 2972 2969 2967 2964 2961 2958 2954 2951 2947 2944 2941 2938 2936 2934 2932 2930 2927 2925 2922 2919 2916 2913 2910 2907 2904 2902 2899 2895 2892 2889 2886 2883 2881 2878 2876 2873 2871 2869 2867 2865 2864
2999 2995 2992 2989 2987 2984 2982 2981 2980 2979 2978 2976 2975 2973 2970 2967 2964 2961 2958 2955 2951 2948 2945 2942 2940 2937 2935 2932 2930 2927 2924 2922 2919 2916 2914 2910 2907 2904 2900 2897 2894 2891 2888 2885 2882 2880 2877 2875 2872 2869 2867 2865 2863 2862
2999 2995 2992 2990 2987 2985 2983 2982 2981 2980 2979 2977 2976 2974 2970 2967 2964 2961 2958 2955 2952 2948 2946 2943 2941 2938 2936 2933 2931 2928 2926 2923 2920 2917 2914 2911 2907 2904 2901 2898 2894 2891 2888 2885 2882 2880 2877 2875 2872 2869 2867 2865 2863 2861
Wind_Speed
21 20 21 21 21 22 22 24 25 24 23 25 26 24 22 20 21 17 12 12 14 17 15 10 11 16 15 14 16 16 18 8 10 10 8 7 8 10 6 10 12 7 6 18 25 25 20 12 13 14 18 21 27 29
20 20 21 22 22 22 23 24 24 22 23 25 26 23 19 15 14 12 11 12 11 14 9 10 16 14 14 10 12 14 13 14 11 10 7 6 12 14 13 6 10 4 5 9 6 2 7 8 9 8 12 15 19 25
21 21 21 21 22 24 25 27 27 27 26 23 23 19 11 11 14 13 9 7 4 5 9 9 11 11 13 12 16 18 13 11 13 12 11 10 8 10 10 4 6 11 12 5 5 8 9 11 9 12 12 14 17 20
24 23 22 22 23 24 26 27 27 26 26 21 18 18 16 14 10 8 3 5 6 9 14 9 12 16 11 9 10 10 12 13 15 14 14 12 11 7 7 9 8 8 9 6 2 9 3 7 11 11 9 9 12 17
24 23 20 21 23 26 28 28 28 24 23 21 17 15 14 14 9 7 6 8 9 7 11 13 13 9 11 8 10 12 14 11 11 13 13 11 9 10 13 9 2 5 8 10 8 6 11 14 15 14 12 12 11 11
24 20 21 21 25 28 30 29 28 26 22 21 18 15 13 13 11 10 11 7 7 8 9 6 7 12 11 11 12 12 11 8 11 11 15 18 19 11 6 3 2 1 4 8 12 3 7 12 12 14 16 17 17 16
23 19 19 21 26 30 32 31 28 26 22 20 16 11 10 10 10 7 7 8 8 8 8 6 4 8 12 10 11 12 9 6 6 10 11 10 10 7 7 4 2 3 1 4 7 7 8 10 9 12 13 16 18 17
23 19 20 22 27 30 32 31 28 24 20 16 12 9 8 7 6 6 6 7 5 4 3 3 6 9 7 10 6 8 7 5 4 2 2 2 2 3 3 1 1 2 5 6 8 8 8 10 11 11 9 8 7 10
23 20 21 23 26 31 32 29 27 21 15 11 9 8 9 8 6 5 5 9 4 1 2 6 10 5 10 7 1 4 5 3 5 5 2 1 2 5 4 2 2 2 4 5 7 8 9 10 10 10 9 8 7 3
22 23 21 24 28 30 31 28 24 17 11 8 9 8 8 9 8 6 5 4 3 3 4 9 10 9 9 3 3 4 3 3 2 5 4 6 9 6 5 4 4 5 5 5 7 8 8 10 10 8 8 7 7 5
20 22 23 24 27 29 29 27 22 12 11 9 7 7 8 6 7 5 5 4 5 4 5 11 11 10 7 3 4 3 2 2 2 1 0 2 3 5 6 5 6 6 7 8 8 7 8 8 9 8 8 8 8 6
20 21 22 25 27 27 27 25 19 11 9 11 5 3 8 8 5 6 9 6 5 4 12 10 8 9 6 4 1 2 2 1 1 1 1 1 3 5 6 7 7 7 8 9 10 9 9 9 9 9 9 8 8 7
20 21 21 23 25 25 25 22 16 12 7 9 6 5 5 7 8 7 10 7 10 12 10 9 7 7 5 4 1 2 1 0 3 1 1 1 3 5 7 8 9 9 9 10 10 11 11 11 10 10 10 9 9 9
20 20 20 22 23 22 21 20 15 13 7 4 4 7 6 6 8 11 14 15 14 13 9 7 5 5 5 3 2 1 1 1 0 1 1 3 5 6 8 9 9 10 11 11 10 10 10 11 11 10 10 10 10 10
20 19 19 19 20 20 19 18 14 12 7 3 3 3 6 9 12 14 14 14 13 10 8 5 4 3 4 2 2 1 1 1 1 1 4 5 7 8 9 9 10 10 11 11 11 11 11 10 10 10 10 10 10 10
22 20 19 18 18 17 17 15 11 7 7 3 2 2 6 12 13 13 14 14 12 9 5 3 2 2 2 2 1 0 0 1 3 4 5 6 7 8 8 9 9 9 10 10 10 10 10 10 10 9 9 9 9 9
24 23 21 19 18 17 15 12 11 7 4 3 4 6 9 11 12 13 12 12 12 9 6 2 2 1 1 1 1 1 0 3 5 5 6 6 6 6 7 7 8 9 10 10 10 10 10 10 9 9 8 8 9 8
25 24 22 20 18 17 15 11 10 5 6 6 6 9 11 11 12 12 11 11 10 8 5 2 3 3 1 2 2 3 3 4 5 5 6 6 6 6 6 7 7 8 8 9 9 10 10 10 9 10 10 9 9 8
27 25 22 20 18 17 15 8 10 7 7 9 8 9 11 11 12 13 12 12 10 6 3 2 3 5 5 4 5 5 6 6 7 7 7 7 7 7 7 7 7 7 8 8 8 9 9 9 9 9 8 9 8 8
28 25 23 20 18 16 8 5 11 7 8 10 8 10 12 10 11 12 11 12 9 4 1 6 8 7 7 7 7 8 8 8 9 9 11 11 10 10 10 10 10 10 10 9 9 8 8 8 8 10 10 10 10 10
28 26 23 20 15 10 5 5 12 8 11 8 9 10 12 9 9 9 9 9 4 8 14 13 12 11 10 10 10 10 10 10 10 11 11 11 14 14 14 14 14 14 14 13 13 12 11 10 9 9 9 10 11 12
26 25 21 16 9 6 4 8 11 12 11 8 10 13 9 5 7 7 4 2 8 11 11 11 12 13 14 13 13 12 12 12 12 12 13 12 12 13 14 15 15 16 16 16 16 16 15 15 14 13 12 11 11 11
28 25 16 7 6 7 6 15 13 14 9 10 14 9 5 9 8 3 3 7 8 9 10 12 14 16 16 16 16 15 15 14 13 13 13 13 12 12 13 13 14 15 16 17 17 18 18 18 18 17 16 15 14 13
26 15 7 6 11 10 13 12 14 12 11 11 7 5 11 8 5 8 9 9 10 12 13 14 15 16 17 17 17 16 15 14 13 12 13 13 14 14 13 13 14 14 14 15 16 18 18 18 18 18 18 18 17 16
14 10 7 12 15 15 11 14 12 14 10 7 9 8 8 5 9 11 12 13 14 15 16 17 17 18 18 17 17 15 14 12 12 12 13 14 15 15 16 15 14 13 13 12 12 12 14 15 17 17 18 17 17 16
14 9 16 17 17 13 12 14 11 11 9 7 10 6 5 6 7 8 14 18 19 19 19 17 16 15 15 15 14 12 12 12 11 12 12 14 15 15 15 14 14 13 13 12 12 12 12 12 12 13 14 15 15 14
12 13 19 17 15 12 12 13 9 10 9 7 8 4 4 3 6 14 19 23 25 21 19 18 17 15 14 12 12 11 10 10 11 12 13 13 14 14 13 13 13 13 14 14 15 15 14 14 14 13 13 13 13 13
18 18 17 15 13 14 14 12 10 9 10 8 7 4 3 3 10 17 23 25 21 19 19 18 17 15 13 11 10 10 11 13 14 13 13 13 14 14 14 15 15 15 15 15 15 15 15 15 14 12 14 14 13 13
19 17 15 16 17 15 13 11 11 11 9 8 7 5 4 7 15 20 23 20 19 19 18 16 15 14 13 12 11 12 12 12 12 12 13 14 14 15 16 17 18 18 18 16 17 17 16 16 16 13 13 13 14 14
17 16 17 18 17 15 11 9 9 10 10 8 8 7 9 14 17 20 20 20 19 19 19 17 15 13 12 13 14 13 14 14 15 15 15 14 14 13 14 14 15 16 17 17 16 15 15 15 15 15 13 12 12 13
16 16 18 18 17 14 9 7 7 10 12 14 14 11 11 13 15 17 18 19 19 18 16 15 14 13 13 13 12 12 13 14 15 15 15 15 15 15 15 14 15 15 15 15 14 13 14 15 14 13 12 11 11 11
16 18 16 15 15 13 9 5 3 6 8 14 19 21 16 16 15 17 17 17 18 17 16 14 13 12 12 13 14 14 14 14 15 15 16 16 16 17 18 18 17 16 15 14 13 13 13 14 14 14 13 11 9 7
17 19 16 14 15 12 9 5 1 3 7 10 14 20 21 18 19 19 19 19 19 19 18 17 16 16 16 16 16 17 17 17 17 17 17 17 18 18 18 17 16 16 15 14 13 13 12 12 12 13 12 11 9 7
Wind_Direction
345 343 339 338 336 334 330 327 326 328 328 328 327 318 299 296 312 305 292 270 272 259 261 262 273 286 290 293 293 293 301 295 275 263 273 288 307 330 305 313 278 298 302 254 250 241 231 283 257 240 246 250 260 264
344 342 338 337 336 337 340 336 331 330 332 331 333 325 315 301 311 295 290 277 274 243 254 277 283 291 293 293 288 293 285 283 269 299 281 298 301 300 297 291 336 292 355 309 332 313 310 315 327 295 270 269 265 265
349 345 343 342 339 336 334 332 328 323 322 324 332 334 324 314 315 319 275 222 210 266 283 279 279 299 301 280 284 288 294 280 277 282 291 281 274 294 295 326 346 322 320 283 182 263 298 275 303 301 289 283 273 274
349 346 344 343 344 343 342 340 336 333 330 326 322 327 321 318 311 303 354 343 320 299 298 283 290 300 294 288 284 292 294 284 276 276 281 276 286 272 271 291 295 313 317 345 325 307 347 323 319 316 314 309 294 285
347 349 349 350 349 347 346 343 341 336 329 326 321 311 316 312 305 333 331 311 298 284 285 292 294 278 293 296 298 295 303 280 269 266 273 266 246 282 287 276 319 345 2 6 341 351 2 359 2 359 355 355 341 310
350 349 351 353 351 349 347 345 343 340 334 328 321 310 302 307 318 317 314 309 295 297 305 316 276 289 297 298 306 300 302 290 256 240 250 260 262 243 231 201 274 340 9 353 1 323 355 348 348 357 359 5 5 3
350 346 347 347 348 348 347 346 346 342 341 341 336 325 316 302 306 312 296 299 297 294 309 310 310 296 309 311 312 314 315 311 274 250 241 254 253 237 218 173 237 235 283 338 340 357 301 305 346 356 352 353 357 3
349 344 343 342 343 346 347 346 346 343 344 349 357 359 358 355 347 340 315 307 291 306 312 313 307 317 320 326 309 314 335 336 335 290 255 232 218 171 100 84 350 299 274 292 317 332 349 349 343 326 332 329 324 354
350 344 341 343 343 345 347 347 346 344 349 3 11 20 19 10 6 6 34 51 102 85 330 332 352 325 336 339 286 291 340 359 41 49 26 301 92 59 45 42 350 312 310 289 300 304 310 327 327 323 329 325 319 342
349 348 339 339 342 345 349 349 349 349 354 7 10 11 6 3 2 360 358 349 333 317 344 351 353 346 352 31 32 300 343 34 42 26 44 57 65 43 17 6 352 338 328 320 314 313 309 305 309 312 320 332 334 342
347 349 350 348 347 348 352 353 353 355 1 346 341 3 8 6 6 0 347 334 328 318 319 337 346 354 356 7 11 346 314 2 77 343 134 73 29 14 7 356 348 340 334 331 331 327 323 319 318 320 320 321 319 323
345 343 343 346 349 351 355 355 357 4 359 2 19 34 24 21 5 3 357 348 333 317 321 325 332 342 352 357 13 315 279 263 190 172 109 97 347 351 349 346 341 338 333 328 325 324 323 317 314 314 314 315 311 307
342 342 343 348 350 352 354 358 359 2 3 16 29 21 14 14 15 3 351 339 329 320 312 326 335 344 345 341 320 300 304 223 149 235 137 189 332 337 339 340 337 335 334 332 331 330 329 330 329 326 324 325 324 323
339 339 342 346 348 349 352 356 4 12 353 329 17 33 34 4 347 343 337 332 329 326 312 301 319 334 331 314 307 301 205 180 3 69 252 307 321 325 328 330 331 331 330 329 328 326 325 323 321 321 319 316 316 316
343 338 337 342 342 345 348 351 357 15 350 353 32 34 15 1 353 349 345 341 335 330 320 308 305 306 316 308 313 299 274 45 82 217 287 313 316 319 323 327 329 330 331 332 332 332 330 328 326 323 319 317 312 310
344 340 336 338 341 340 342 343 343 342 340 25 51 1 350 354 354 353 357 356 352 347 333 324 310 302 289 289 292 275 77 52 267 294 309 315 317 322 324 327 332 335 337 337 337 337 337 335 334 330 323 317 315 315
343 340 337 335 335 334 334 332 332 322 314 307 330 341 343 344 349 350 351 359 5 3 4 337 318 290 328 356 20 29 246 300 308 315 321 323 326 329 331 333 335 339 341 341 339 337 336 336 335 333 335 334 329 323
340 338 335 332 330 329 327 317 328 292 307 311 314 325 331 339 348 349 351 355 356 4 1 24 31 17 45 43 10 344 321 316 316 316 319 323 328 329 331 334 337 339 341 343 345 346 346 345 344 339 337 337 335 331
335 333 331 328 326 328 325 300 325 303 293 317 313 325 331 332 338 344 347 351 350 352 5 38 35 32 38 18 350 336 326 318 315 312 310 309 310 311 312 316 321 326 330 335 340 345 348 353 356 355 349 343 341 337
333 331 329 326 325 326 318 287 326 316 310 315 311 329 334 329 333 340 348 353 353 355 61 64 55 38 23 9 355 343 333 325 317 311 309 305 299 296 297 299 303 306 310 313 316 321 332 345 356 2 4 3 0 353
332 331 330 326 322 324 299 315 342 326 326 316 321 329 331 323 327 342 354 22 77 87 75 62 48 36 23 10 360 351 343 337 331 322 311 300 298 297 295 292 290 289 290 292 294 296 300 305 314 324 334 343 350 355
332 333 329 326 328 334 295 337 346 337 332 322 332 332 328 332 342 344 17 23 77 69 52 37 26 18 11 4 356 348 341 336 332 326 322 320 317 312 306 300 292 287 283 281 281 283 285 287 289 293 298 306 315 326
337 331 333 342 357 341 326 334 340 346 338 332 337 344 11 5 357 18 62 57 42 21 7 359 353 351 349 347 343 339 335 332 331 327 324 325 327 324 319 313 306 300 294 289 285 282 280 279 279 280 281 284 289 296
335 339 343 6 349 337 335 338 349 358 349 352 11 34 4 11 57 73 62 34 10 357 349 345 341 338 337 333 331 331 330 328 327 328 327 327 328 328 327 323 316 310 303 296 291 289 287 284 281 279 277 276 277 279
341 347 352 357 347 348 351 356 358 359 9 22 19 10 18 50 88 55 20 4 354 345 339 335 333 331 330 331 332 331 332 331 329 329 329 329 331 331 330 329 327 323 320 317 313 306 298 294 290 286 282 278 274 272
343 17 1 352 357 4 6 358 353 5 8 10 3 23 56 68 61 23 15 8 358 348 340 340 340 338 335 331 335 333 332 332 332 331 331 331 331 331 331 332 333 332 332 328 324 321 318 315 308 301 293 287 281 275
12 1 360 5 9 13 2 0 11 16 15 3 10 47 58 69 41 8 3 354 349 345 346 346 346 345 345 342 340 341 342 342 341 338 334 334 334 335 336 336 335 332 331 327 325 323 321 317 316 314 307 301 292 282
15 12 11 16 18 12 14 21 23 17 10 18 30 40 62 80 21 357 353 347 348 349 349 349 350 352 355 354 353 353 349 345 342 340 338 338 336 333 329 328 328 328 327 324 319 316 312 308 306 303 297 298 297 292
18 17 20 19 15 18 21 28 30 30 38 46 51 69 82 7 350 351 350 353 354 354 355 357 356 355 357 2 1 355 352 350 348 345 343 342 339 335 331 328 328 329 331 330 327 325 323 318 314 309 299 290 284 282
23 23 21 16 16 17 23 35 44 44 44 43 40 22 355 350 351 353 356 355 356 356 356 359 0 2 1 357 355 356 354 353 353 353 349 344 344 343 340 336 333 329 329 328 328 325 324 323 319 315 311 302 290 279
16 14 13 12 11 12 21 41 61 53 52 45 33 17 6 357 355 2 1 356 357 359 0 359 2 1 358 358 357 354 353 351 349 351 360 2 359 357 351 347 347 346 345 344 342 340 340 340 338 332 324 314 303 292
5 4 1 7 9 11 15 36 77 53 36 29 26 19 15 12 15 12 7 5 4 5 10 15 14 9 7 10 13 14 16 18 15 11 8 5 2 2 3 1 358 355 352 350 350 348 346 347 350 352 350 344 333 323
1 5 6 10 11 12 13 13 253 322 350 356 3 6 10 15 17 14 12 10 11 14 20 25 30 32 32 30 28 24 21 19 16 12 9 7 5 4 3 3 2 2 2 1 359 356 356 355 354 355 358 359 358 355